Location: Lugrin
(46.4033°N, 6.6674°E)
Time: 07:02:59
(UTC+00:00)

Okean 2 Rocket - Pass Details

Date: 18 September 2020
Orbit: 616 x 642 km, 82.5° (Epoch: 23 October)

Event Time Altitude Azimuth Distance (km) Brightness Sun altitude
Rises 18:03:17 0° 148° (SSE) 2,934 6.1 -5.1°
Reaches altitude 10° 18:06:02 10° 131° (SE) 2,028 5.2 -5.6°
Maximum altitude 18:09:13 19° 86° (E) 1,510 4.5 -6.1°
Drops below altitude 10° 18:12:23 10° 41° (NE) 2,030 5.4 -6.7°
Sets 18:15:09 0° 24° (NNE) 2,939 6.4 -7.2°
